Regional Weather Roundup
Issued by NWS Sterling, VA

Home | Current Version | Previous Version | Graphics & Text | Print | Product List | Glossary On
Versions: 1 2 3 4 5 6 7 8 9 10 11 12 13 14 15 16 17 18 19 20 21 22 23 24 25 26 27 28 29 30 31 32 33 34 35 36 37 38 39 40 41 42 43 44 45 46 47 48 49 50
000
ASUS41 KLWX 100810
RWRLWX

REGIONAL WEATHER ROUNDUP
NATIONAL WEATHER SERVICE BALTIMORE MD/WASHINGTON DC
300 AM EST SAT DEC 10 2016

Note: "FAIR" indicates few or no clouds below 12,000 feet
with no significant weather and/or obstructions to visibility.
 TC=TEMPERATURE CELSIUS

 * =Non NWS site. Station does not report precipitation (e.g. rain,
    snow, etc.), thunder, or fog.

DCZ001-MDZ009-015-VAZ040>042-051-053>054-100900-
WASHINGTON METRO

CITY           SKY/WX    TMP DP  RH WIND       PRES   REMARKS
WASHINGTON NAT MOCLDY    32  16  51 W9        30.46R WCI  24
DULLES         PTCLDY    27  14  58 SW5       30.46R
ANDREWS AFB    MOCLDY    29  15  55 W8        30.44R WCI  22
QUANTICO       PTCLDY    30  18  60 NW8       30.49R WCI  22
COLLEGE PARK*  MOCLDY    30  18  59 W7        30.44R
LEESBURG*      CLOUDY    32  19  59 W5        30.45R
GAITHERSBURG*  CLOUDY    25  14  63 W7        30.46R

$$

MDZ006>007-011-014-100900-
BALTIMORE METRO

CITY           SKY/WX    TMP DP  RH WIND       PRES   REMARKS
BWI AIRPORT    MOCLDY    27  18  69 W10       30.43R WCI  17
MD SCIENCE CTR   N/A     31  15  52 MISG      30.43R
ANNAPOLIS      CLEAR     31  18  58 W5        30.44R
FORT MEADE*    PTCLDY    28  19  69 W3        30.46R

$$

MDZ012-015-019>023-100900-
MARYLAND EASTERN SHORE

CITY           SKY/WX    TMP DP  RH WIND       PRES   REMARKS
OCEAN CITY     CLEAR     28  18  66 NW6       30.43R
SALISBURY      PTCLDY    29  19  66 W6        30.43R
BAY BRIDGE AP* CLEAR     30  19  64 MISG      30.44S
CAMBRIDGE*     PTCLDY    32  19  59 NW12G18   30.44R WCI  23
EASTON*        PTCLDY    32  19  58 NW12      30.47S WCI  23

$$

MDZ017>025-100900-
SOUTHERN MARYLAND

CITY           SKY/WX    TMP DP  RH WIND       PRES   REMARKS
PATUXENT RIVER CLEAR     30  17  58 W9        30.45R WCI  22
ST INIGOES     PTCLDY    32  18  56 NW12      30.45R WCI  23
LEONARDTOWN*   PTCLDY    30  18  59 W6        30.47R

$$

MDZ003>005-100900-
NORTH CENTRAL MARYLAND

CITY           SKY/WX    TMP DP  RH WIND       PRES   REMARKS
FREDERICK*     CLOUDY    28  19  69 NW5       30.46S
HAGERSTOWN APT PTCLDY    28  15  58 W13       30.41R WCI  17
WESTMINSTER*     N/A     25  16  68 W8        30.39R WCI  16

$$

MDZ501>502-100900-
WESTERN MARYLAND

CITY           SKY/WX    TMP DP  RH WIND       PRES   REMARKS
OAKLAND*       CLOUDY    16  12  86 W9        30.29R WCI   4
CUMBERLAND*    NOT AVBL

$$

VAZ025>031-100900-
SHENANDOAH VALLEY

CITY           SKY/WX    TMP DP  RH WIND       PRES   REMARKS
WINCHESTER*    PTCLDY    28  12  50 W14       30.43S WCI  17
FRONT ROYAL*   FAIR      28  14  54 W5        30.45R
LURAY*         FAIR      28  18  64 W3        30.45R
NEW MARKET*    FAIR      26  11  53 CALM      30.44S
STAUNTON*      PTCLDY    21  13  71 CALM      30.46S
WAYNESBORO*    FAIR      21  10  63 SW6       30.43S

$$

WVZ021-048>050-054>055-100900-
EASTERN WEST VIRGINIA PANHANDLE

CITY           SKY/WX    TMP DP  RH WIND       PRES   REMARKS
MARTINSBURG    PTCLDY    29  14  53 W9        30.43R WCI  20
PETERSBURG*    MOCLDY    27  16  63 W3        30.46S

$$

VAZ036>039-050-100900-
CENTRAL FOOTHILLS

CITY           SKY/WX    TMP DP  RH WIND       PRES   REMARKS
CHARLOTTESVILL PTCLDY    28  12  51 CALM      30.47R
CULPEPER*      PTCLDY    30  16  56 CALM      30.49R
ORANGE*          N/A     28  18  64 CALM      30.49R
GORDONSVILLE*  FAIR      28  13  54 CALM      30.47S
WARRENTON*     FAIR      27  13  56 SW3       30.46S

$$

VAZ055>057-100900-
NORTH AND CENTRAL PIEDMONT

CITY           SKY/WX    TMP DP  RH WIND       PRES   REMARKS
FREDERICKSBRG* PTCLDY    29  17  61 W6        30.49R
STAFFORD*      MOCLDY    27  15  61 W6        30.51S

$$

NCZ024-NYZ072-PAZ021-071-VAZ022-071-100900-
OTHER REGIONAL OBSERVATIONS

CITY           SKY/WX    TMP DP  RH WIND       PRES   REMARKS
NEW YORK CITY  CLEAR     30  14  51 W7        30.34R
PHILADELPHIA   MOCLDY    30  17  58 W9        30.40R WCI  22
PITTSBURGH     CLOUDY    25  19  78 W9        30.40R WCI  15
ROANOKE        CLEAR     20  11  68 NW6       30.49R
RICHMOND       PTCLDY    26  13  57 NW7       30.49R
RALEIGH        CLEAR     24  15  68 CALM      30.52R

$$

ANZ530>537-100900-
MARINE OBSERVATIONS

STATION/POSITION TIME  TEMP    WIND        PRES
                       AIR SEA DIR/SP/G
                 (UTC) (F)     (DEG/KT/KT) (MB)
THOMAS PT LIGHT  0800   32 45  290/ 15/ 18   N/A
BALT KEY BRIDGE  0748   31     280/ 12/ 16 1030.3R
COVE POINT       0748   31     320/ 10/ 15 1031.6R
LEWISETTA        0748   31 43  300/ 10/ 12 1031.4R
SOLOMONS ISLAND  0742   32 48  300/  7/ 11   N/A
PINEY POINT      0748          330/ 23/ 26   N/A

$$




USA.gov is the U.S. government's official web portal to all federal, state and local government web resources and services.